When you browse on this site, cookies collect data to enhance your experience and personalize the content and advertising you see.
Visit our Privacy Policy to learn more. By continuing to use the site, you agree to this use of cookies and data.
  • In Österreich
  • Länderverzeichnis
  • Für 7 Tage
  • Wassertemperatur
  • Satellitenkarten
  • Wetterkarte
  • News
  • Widgets
  • user-avatar
    Anmelden

    Stündliche Wetter Sapino

    Heute, 18 Februar, Montag

    Zeit Temperatur Niederschläge Wind Luftdruck Luftfeuchtigkeit
    00:00 -4°C° 0 mm 4 m/S 756 mmHg 80%
    01:00 -4°C° 0 mm 3 m/S 757 mmHg 81%
    02:00 -5°C° 0 mm 3 m/S 757 mmHg 82%
    03:00 -5°C° 0 mm 3 m/S 758 mmHg 83%
    04:00 -5°C° 0 mm 3 m/S 758 mmHg 84%
    05:00 -5°C° 0 mm 2 m/S 759 mmHg 86%
    06:00 -5°C° 0 mm 2 m/S 759 mmHg 86%
    07:00 -5°C° 0 mm 2 m/S 760 mmHg 87%
    08:00 -5°C° 0 mm 2 m/S 760 mmHg 87%
    09:00 -5°C° 0 mm 2 m/S 761 mmHg 82%
    10:00 -2°C° 0 mm 1 m/S 761 mmHg 77%
    11:00 -1°C° 0 mm 1 m/S 761 mmHg 72%
    12:00 0°C° 0 mm 1 m/S 761 mmHg 69%
    13:00 0°C° 0 mm 1 m/S 761 mmHg 65%
    14:00 +1°C° 0 mm 1 m/S 761 mmHg 62%
    15:00 0°C° 0 mm 1 m/S 761 mmHg 66%
    16:00 -1°C° 0 mm 1 m/S 761 mmHg 70%
    17:00 -2°C° 0 mm 1 m/S 761 mmHg 73%
    18:00 -2°C° 0 mm 1 m/S 760 mmHg 75%
    19:00 -4°C° 0 mm 2 m/S 760 mmHg 76%
    20:00 -4°C° 0 mm 2 m/S 760 mmHg 77%
    21:00 -5°C° 0 mm 3 m/S 760 mmHg 76%
    22:00 -5°C° 0 mm 3 m/S 759 mmHg 75%
    23:00 -5°C° 0 mm 3 m/S 759 mmHg 74%

    Morgen, 19 Februar, Dienstag

    Zeit Temperatur Niederschläge Wind Luftdruck Luftfeuchtigkeit
    00:00 -4°C° 0 mm 4 m/S 759 mmHg 73%
    01:00 -4°C° 0 mm 4 m/S 758 mmHg 72%
    02:00 -4°C° 0 mm 4 m/S 758 mmHg 71%
    03:00 -4°C° 0 mm 4 m/S 757 mmHg 72%
    04:00 -4°C° 0 mm 4 m/S 756 mmHg 74%
    05:00 -5°C° 0 mm 5 m/S 756 mmHg 76%
    06:00 -4°C° 0 mm 5 m/S 755 mmHg 77%
    07:00 -4°C° 0 mm 5 m/S 755 mmHg 79%
    08:00 -4°C° 0 mm 5 m/S 754 mmHg 80%
    09:00 -2°C° 0 mm 5 m/S 754 mmHg 78%
    10:00 -1°C° 0 mm 5 m/S 753 mmHg 76%
    11:00 +1°C° 0 mm 5 m/S 753 mmHg 74%
    12:00 +1°C° 0 mm 5 m/S 752 mmHg 74%
    13:00 +1°C° 0 mm 5 m/S 752 mmHg 75%
    14:00 +2°C° 0 mm 5 m/S 751 mmHg 75%
    15:00 +1°C° 0 mm 5 m/S 751 mmHg 78%
    16:00 0°C° 0 mm 4 m/S 750 mmHg 81%
    17:00 0°C° 0 mm 4 m/S 749 mmHg 84%
    18:00 0°C° 0 mm 4 m/S 749 mmHg 85%
    19:00 0°C° 0 mm 5 m/S 748 mmHg 86%
    20:00 0°C° 0 mm 5 m/S 748 mmHg 87%
    21:00 0°C° 0 mm 5 m/S 747 mmHg 88%
    22:00 0°C° 0 mm 5 m/S 746 mmHg 88%
    23:00 0°C° 0 mm 5 m/S 745 mmHg 88%

    übermorgen, 20 Februar, Mittwoch

    Zeit Temperatur Niederschläge Wind Luftdruck Luftfeuchtigkeit
    00:00 0°C° 0.1 mm 5 m/S 745 mmHg 88%
    01:00 0°C° 0.1 mm 5 m/S 744 mmHg 89%
    02:00 +1°C° 0.1 mm 5 m/S 744 mmHg 89%
    03:00 +1°C° 0.3 mm 5 m/S 743 mmHg 89%
    04:00 +1°C° 0.3 mm 4 m/S 743 mmHg 90%
    05:00 +1°C° 0.3 mm 4 m/S 743 mmHg 90%
    06:00 +1°C° 0 mm 4 m/S 743 mmHg 89%
    07:00 +1°C° 0 mm 4 m/S 743 mmHg 89%
    08:00 +1°C° 0 mm 4 m/S 743 mmHg 88%
    09:00 +1°C° 0.1 mm 4 m/S 743 mmHg 85%
    10:00 +1°C° 0.1 mm 5 m/S 743 mmHg 82%
    11:00 +2°C° 0.1 mm 5 m/S 743 mmHg 80%
    12:00 +2°C° 0.1 mm 5 m/S 742 mmHg 80%
    13:00 +2°C° 0.1 mm 5 m/S 742 mmHg 80%
    14:00 +2°C° 0.1 mm 5 m/S 742 mmHg 80%
    15:00 +1°C° 0.3 mm 5 m/S 742 mmHg 81%
    16:00 +1°C° 0.3 mm 5 m/S 742 mmHg 82%
    17:00 +1°C° 0.3 mm 5 m/S 741 mmHg 83%
    18:00 -1°C° 0.1 mm 5 m/S 742 mmHg 79%
    19:00 -2°C° 0.1 mm 5 m/S 742 mmHg 76%
    20:00 -3°C° 0.1 mm 4 m/S 742 mmHg 72%
    21:00 -4°C° 0.1 mm 5 m/S 742 mmHg 74%
    22:00 -4°C° 0.1 mm 5 m/S 743 mmHg 76%
    23:00 -4°C° 0.1 mm 6 m/S 743 mmHg 79%

    21 Februar, Donnerstag

    Zeit Temperatur Niederschläge Wind Luftdruck Luftfeuchtigkeit
    00:00 -4°C° 0.2 mm 6 m/S 743 mmHg 78%
    01:00 -5°C° 0.2 mm 6 m/S 744 mmHg 78%
    02:00 -5°C° 0.2 mm 6 m/S 744 mmHg 78%
    03:00 -5°C° 0.1 mm 6 m/S 744 mmHg 77%
    04:00 -5°C° 0.1 mm 6 m/S 745 mmHg 76%
    05:00 -5°C° 0.1 mm 6 m/S 745 mmHg 74%
    06:00 -5°C° 0.1 mm 6 m/S 746 mmHg 72%
    07:00 -6°C° 0.1 mm 6 m/S 746 mmHg 70%
    08:00 -7°C° 0.1 mm 7 m/S 747 mmHg 68%
    09:00 -8°C° 0.1 mm 7 m/S 748 mmHg 67%
    10:00 -8°C° 0.1 mm 7 m/S 749 mmHg 67%
    11:00 -8°C° 0.1 mm 7 m/S 750 mmHg 66%
    12:00 -8°C° 0 mm 7 m/S 750 mmHg 65%
    13:00 -7°C° 0 mm 7 m/S 751 mmHg 64%
    14:00 -7°C° 0 mm 7 m/S 752 mmHg 63%
    15:00 -8°C° 0.1 mm 7 m/S 753 mmHg 64%
    16:00 -8°C° 0.1 mm 6 m/S 754 mmHg 65%
    17:00 -8°C° 0.1 mm 6 m/S 755 mmHg 67%
    18:00 -9°C° 0 mm 6 m/S 756 mmHg 67%
    19:00 -9°C° 0 mm 6 m/S 757 mmHg 66%
    20:00 -10°C° 0 mm 6 m/S 758 mmHg 66%
    21:00 -10°C° 0 mm 5 m/S 759 mmHg 66%
    22:00 -11°C° 0 mm 5 m/S 759 mmHg 66%
    23:00 -11°C° 0 mm 5 m/S 760 mmHg 66%

    22 Februar, Freitag

    Zeit Temperatur Niederschläge Wind Luftdruck Luftfeuchtigkeit
    00:00 -11°C° 0 mm 5 m/S 761 mmHg 66%
    01:00 -12°C° 0 mm 5 m/S 762 mmHg 67%
    02:00 -12°C° 0 mm 5 m/S 762 mmHg 67%
    03:00 -11°C° 0 mm 4 m/S 763 mmHg 68%
    04:00 -11°C° 0 mm 4 m/S 764 mmHg 69%
    05:00 -11°C° 0 mm 4 m/S 764 mmHg 70%
    06:00 -11°C° 0 mm 4 m/S 765 mmHg 71%
    07:00 -11°C° 0 mm 4 m/S 766 mmHg 72%
    08:00 -11°C° 0 mm 4 m/S 766 mmHg 73%
    09:00 -11°C° 0 mm 4 m/S 767 mmHg 69%
    10:00 -10°C° 0 mm 4 m/S 767 mmHg 65%
    11:00 -10°C° 0 mm 5 m/S 768 mmHg 61%
    12:00 -8°C° 0 mm 5 m/S 768 mmHg 59%
    13:00 -8°C° 0 mm 5 m/S 768 mmHg 57%
    14:00 -8°C° 0 mm 5 m/S 769 mmHg 55%
    15:00 -8°C° 0 mm 4 m/S 769 mmHg 58%
    16:00 -8°C° 0 mm 4 m/S 770 mmHg 62%
    17:00 -8°C° 0 mm 3 m/S 770 mmHg 65%
    18:00 -8°C° 0 mm 3 m/S 771 mmHg 68%
    19:00 -9°C° 0 mm 3 m/S 771 mmHg 70%
    20:00 -9°C° 0 mm 3 m/S 771 mmHg 73%
    21:00 -8°C° 0 mm 2 m/S 772 mmHg 75%
    22:00 -9°C° 0 mm 2 m/S 772 mmHg 78%
    23:00 -8°C° 0 mm 1 m/S 772 mmHg 80%

    23 Februar, Samstag

    Zeit Temperatur Niederschläge Wind Luftdruck Luftfeuchtigkeit
    00:00 -8°C° 0 mm 1 m/S 772 mmHg 79%
    01:00 -8°C° 0 mm 1 m/S 772 mmHg 78%
    02:00 -8°C° 0 mm 1 m/S 772 mmHg 77%
    03:00 -7°C° 0 mm 1 m/S 771 mmHg 74%
    04:00 -8°C° 0 mm 2 m/S 771 mmHg 70%
    05:00 -8°C° 0 mm 2 m/S 770 mmHg 66%
    06:00 -8°C° 0 mm 3 m/S 770 mmHg 63%
    07:00 -8°C° 0 mm 3 m/S 769 mmHg 59%
    08:00 -8°C° 0 mm 4 m/S 769 mmHg 56%
    09:00 -8°C° 0.2 mm 4 m/S 768 mmHg 63%
    10:00 -8°C° 0.2 mm 4 m/S 768 mmHg 71%
    11:00 -7°C° 0.2 mm 5 m/S 767 mmHg 78%
    12:00 -7°C° 0.3 mm 4 m/S 766 mmHg 80%
    13:00 -7°C° 0.3 mm 4 m/S 766 mmHg 82%
    14:00 -7°C° 0.3 mm 4 m/S 765 mmHg 84%
    15:00 -6°C° 0.3 mm 3 m/S 765 mmHg 85%
    16:00 -5°C° 0.3 mm 3 m/S 765 mmHg 86%
    17:00 -5°C° 0.3 mm 3 m/S 764 mmHg 87%
    18:00 -5°C° 0.1 mm 3 m/S 764 mmHg 87%
    19:00 -5°C° 0.1 mm 3 m/S 764 mmHg 88%
    20:00 -3°C° 0.1 mm 2 m/S 764 mmHg 89%
    21:00 -3°C° 0 mm 2 m/S 764 mmHg 89%
    22:00 -3°C° 0 mm 2 m/S 763 mmHg 89%
    23:00 -3°C° 0 mm 2 m/S 763 mmHg 89%
    Mehr zeigen